Time,TemperatureF,DewpointF,PressureIn,WindDirection,WindDirectionDegrees,WindSpeedMPH,WindSpeedGustMPH,Humidity,HourlyPrecipIn,Conditions,Clouds,dailyrainin,SoftwareType,DateUTC
2013-09-06 00:01:00,50.2,48.5,30.24,SE,132,0.0,0.0,94,0.00,,,0.00,Wunderground v.1.15,2013-09-06 05:01:00,
2013-09-06 00:07:00,50.2,48.5,30.24,SE,132,0.0,0.0,94,0.00,,,0.00,Wunderground v.1.15,2013-09-06 05:07:00,
2013-09-06 00:12:00,50.1,48.4,30.24,SE,132,0.0,0.0,94,0.00,,,0.00,Wunderground v.1.15,2013-09-06 05:12:00,
2013-09-06 00:17:00,50.0,48.3,30.24,SE,132,0.0,0.0,94,0.00,,,0.00,Wunderground v.1.15,2013-09-06 05:17:00,
2013-09-06 00:22:00,50.0,48.6,30.23,SE,132,0.0,0.0,95,0.00,,,0.00,Wunderground v.1.15,2013-09-06 05:22:00,
2013-09-06 00:27:00,50.0,48.6,30.24,SE,132,0.0,0.0,95,0.00,,,0.00,Wunderground v.1.15,2013-09-06 05:27:00,
2013-09-06 00:32:00,50.0,48.6,30.24,SE,132,0.0,0.0,95,0.00,,,0.00,Wunderground v.1.15,2013-09-06 05:32:00,
2013-09-06 00:37:00,49.9,48.5,30.23,SE,132,0.0,0.0,95,0.00,,,0.00,Wunderground v.1.15,2013-09-06 05:37:00,
2013-09-06 00:42:00,49.9,48.2,30.23,SE,132,0.0,0.0,94,0.00,,,0.00,Wunderground v.1.15,2013-09-06 05:42:00,
2013-09-06 00:47:00,49.8,48.4,30.23,SE,132,0.0,0.0,95,0.00,,,0.00,Wunderground v.1.15,2013-09-06 05:47:00,
2013-09-06 00:52:00,49.7,48.3,30.23,SE,132,0.0,0.0,95,0.00,,,0.00,Wunderground v.1.15,2013-09-06 05:52:00,
2013-09-06 00:57:00,49.8,48.4,30.23,SE,132,0.0,0.0,95,0.00,,,0.00,Wunderground v.1.15,2013-09-06 05:57:00,
2013-09-06 01:02:00,50.1,48.7,30.23,SE,132,0.0,0.0,95,0.00,,,0.00,Wunderground v.1.15,2013-09-06 06:02:00,
2013-09-06 01:07:00,50.3,48.9,30.23,SE,132,0.0,1.0,95,0.00,,,0.00,Wunderground v.1.15,2013-09-06 06:07:00,
2013-09-06 01:12:00,50.3,48.9,30.23,SE,132,0.0,0.0,95,0.00,,,0.00,Wunderground v.1.15,2013-09-06 06:12:00,
2013-09-06 01:18:00,50.3,48.9,30.23,SE,132,0.0,0.0,95,0.00,,,0.00,Wunderground v.1.15,2013-09-06 06:18:00,
2013-09-06 01:23:00,50.2,48.8,30.22,SE,132,0.0,0.0,95,0.00,,,0.00,Wunderground v.1.15,2013-09-06 06:23:00,
2013-09-06 01:29:00,50.1,48.7,30.22,SE,132,0.0,0.0,95,0.00,,,0.00,Wunderground v.1.15,2013-09-06 06:29:00,
2013-09-06 01:34:00,49.7,48.3,30.22,SE,132,0.0,0.0,95,0.00,,,0.00,Wunderground v.1.15,2013-09-06 06:34:00,
2013-09-06 01:39:00,49.5,48.1,30.22,SE,132,0.0,0.0,95,0.00,,,0.00,Wunderground v.1.15,2013-09-06 06:39:00,
2013-09-06 01:44:00,49.4,48.0,30.23,SE,132,0.0,0.0,95,0.00,,,0.00,Wunderground v.1.15,2013-09-06 06:44:00,
2013-09-06 01:49:00,49.2,47.8,30.23,SE,132,0.0,0.0,95,0.00,,,0.00,Wunderground v.1.15,2013-09-06 06:49:00,
2013-09-06 01:55:00,49.1,47.7,30.23,SE,132,0.0,0.0,95,0.00,,,0.00,Wunderground v.1.15,2013-09-06 06:55:00,
2013-09-06 02:00:00,49.1,47.7,30.23,SE,132,0.0,0.0,95,0.00,,,0.00,Wunderground v.1.15,2013-09-06 07:00:00,
2013-09-06 02:05:00,49.1,47.7,30.23,SE,132,0.0,0.0,95,0.00,,,0.00,Wunderground v.1.15,2013-09-06 07:05:00,
2013-09-06 02:10:00,49.2,47.8,30.23,SE,132,0.0,0.0,95,0.00,,,0.00,Wunderground v.1.15,2013-09-06 07:10:00,
2013-09-06 02:15:00,49.2,47.8,30.23,SE,132,0.0,0.0,95,0.00,,,0.00,Wunderground v.1.15,2013-09-06 07:15:00,
2013-09-06 02:21:00,49.2,47.8,30.22,SE,132,0.0,0.0,95,0.00,,,0.00,Wunderground v.1.15,2013-09-06 07:21:00,
2013-09-06 02:27:00,49.1,47.7,30.22,SE,132,0.0,0.0,95,0.00,,,0.00,Wunderground v.1.15,2013-09-06 07:27:00,
2013-09-06 02:32:00,49.2,48.1,30.22,SE,132,0.0,0.0,96,0.00,,,0.00,Wunderground v.1.15,2013-09-06 07:32:00,
2013-09-06 02:37:00,49.2,48.1,30.22,SE,132,0.0,0.0,96,0.00,,,0.00,Wunderground v.1.15,2013-09-06 07:37:00,
2013-09-06 02:42:00,49.1,48.0,30.22,SE,132,0.0,0.0,96,0.00,,,0.00,Wunderground v.1.15,2013-09-06 07:42:00,
2013-09-06 02:47:00,49.0,47.9,30.22,SE,132,0.0,0.0,96,0.00,,,0.00,Wunderground v.1.15,2013-09-06 07:47:00,
2013-09-06 02:52:00,48.8,47.4,30.22,SE,132,0.0,0.0,95,0.00,,,0.00,Wunderground v.1.15,2013-09-06 07:52:00,
2013-09-06 02:58:00,48.7,47.3,30.23,SE,132,0.0,0.0,95,0.00,,,0.00,Wunderground v.1.15,2013-09-06 07:58:00,
2013-09-06 03:04:00,48.5,47.1,30.22,SE,132,0.0,0.0,95,0.00,,,0.00,Wunderground v.1.15,2013-09-06 08:04:00,
2013-09-06 03:09:00,48.5,47.4,30.22,SE,132,0.0,0.0,96,0.00,,,0.00,Wunderground v.1.15,2013-09-06 08:09:00,
2013-09-06 03:14:00,48.6,47.5,30.22,SE,132,0.0,0.0,96,0.00,,,0.00,Wunderground v.1.15,2013-09-06 08:14:00,
2013-09-06 03:19:00,48.6,47.5,30.22,SE,132,0.0,0.0,96,0.00,,,0.00,Wunderground v.1.15,2013-09-06 08:19:00,
2013-09-06 03:25:00,48.5,47.4,30.23,SE,132,0.0,0.0,96,0.00,,,0.00,Wunderground v.1.15,2013-09-06 08:25:00,
2013-09-06 03:31:00,48.5,47.4,30.22,SE,132,0.0,0.0,96,0.00,,,0.00,Wunderground v.1.15,2013-09-06 08:31:00,
2013-09-06 03:36:00,48.3,46.9,30.23,SE,132,0.0,0.0,95,0.00,,,0.00,Wunderground v.1.15,2013-09-06 08:36:00,
2013-09-06 03:41:00,48.1,46.7,30.22,SE,132,0.0,0.0,95,0.00,,,0.00,Wunderground v.1.15,2013-09-06 08:41:00,
2013-09-06 03:46:00,47.9,46.8,30.22,SE,132,0.0,0.0,96,0.00,,,0.00,Wunderground v.1.15,2013-09-06 08:46:00,
2013-09-06 03:51:00,47.8,46.4,30.22,SE,132,0.0,0.0,95,0.00,,,0.00,Wunderground v.1.15,2013-09-06 08:51:00,
2013-09-06 03:56:00,47.7,46.6,30.23,SE,132,0.0,0.0,96,0.00,,,0.00,Wunderground v.1.15,2013-09-06 08:56:00,
2013-09-06 04:01:00,47.7,46.6,30.23,SE,132,0.0,0.0,96,0.00,,,0.00,Wunderground v.1.15,2013-09-06 09:01:00,
2013-09-06 04:06:00,47.6,46.5,30.22,SE,132,0.0,0.0,96,0.00,,,0.00,Wunderground v.1.15,2013-09-06 09:06:00,
2013-09-06 04:11:00,47.6,46.5,30.23,SE,132,0.0,0.0,96,0.00,,,0.00,Wunderground v.1.15,2013-09-06 09:11:00,
2013-09-06 04:17:00,47.6,46.5,30.23,SE,132,0.0,0.0,96,0.00,,,0.00,Wunderground v.1.15,2013-09-06 09:17:00,
2013-09-06 04:23:00,47.7,46.6,30.23,SE,132,0.0,0.0,96,0.00,,,0.00,Wunderground v.1.15,2013-09-06 09:23:00,
2013-09-06 04:28:00,47.6,46.5,30.23,SE,132,0.0,0.0,96,0.00,,,0.00,Wunderground v.1.15,2013-09-06 09:28:00,
2013-09-06 04:33:00,47.6,46.5,30.23,SE,132,0.0,0.0,96,0.00,,,0.00,Wunderground v.1.15,2013-09-06 09:33:00,
2013-09-06 04:38:00,47.5,46.4,30.23,SE,132,0.0,0.0,96,0.00,,,0.00,Wunderground v.1.15,2013-09-06 09:38:00,
2013-09-06 04:43:00,47.4,46.3,30.23,SE,132,0.0,0.0,96,0.00,,,0.00,Wunderground v.1.15,2013-09-06 09:43:00,
2013-09-06 04:48:00,47.3,46.2,30.23,SE,132,0.0,0.0,96,0.00,,,0.00,Wunderground v.1.15,2013-09-06 09:48:00,
2013-09-06 04:53:00,47.3,46.2,30.23,SE,132,0.0,0.0,96,0.00,,,0.00,Wunderground v.1.15,2013-09-06 09:53:00,
2013-09-06 04:59:00,47.3,46.2,30.23,SE,132,0.0,0.0,96,0.00,,,0.00,Wunderground v.1.15,2013-09-06 09:59:00,
2013-09-06 05:04:00,47.4,46.3,30.23,SE,132,0.0,0.0,96,0.00,,,0.00,Wunderground v.1.15,2013-09-06 10:04:00,
2013-09-06 05:09:00,47.4,46.3,30.23,SE,132,0.0,0.0,96,0.00,,,0.00,Wunderground v.1.15,2013-09-06 10:09:00,
2013-09-06 05:15:00,47.3,46.2,30.23,SE,132,0.0,0.0,96,0.00,,,0.00,Wunderground v.1.15,2013-09-06 10:15:00,
2013-09-06 05:20:00,47.3,46.2,30.23,SE,132,0.0,0.0,96,0.00,,,0.00,Wunderground v.1.15,2013-09-06 10:20:00,
2013-09-06 05:25:00,47.2,46.1,30.23,SE,132,0.0,0.0,96,0.00,,,0.00,Wunderground v.1.15,2013-09-06 10:25:00,
2013-09-06 05:31:00,47.1,46.0,30.23,SE,132,0.0,0.0,96,0.00,,,0.00,Wunderground v.1.15,2013-09-06 10:31:00,
2013-09-06 05:36:00,47.1,46.0,30.23,SE,132,0.0,0.0,96,0.00,,,0.00,Wunderground v.1.15,2013-09-06 10:36:00,
2013-09-06 05:42:00,47.0,45.9,30.23,SE,132,0.0,0.0,96,0.00,,,0.00,Wunderground v.1.15,2013-09-06 10:42:00,
2013-09-06 05:47:00,47.1,46.0,30.23,SE,132,0.0,0.0,96,0.00,,,0.00,Wunderground v.1.15,2013-09-06 10:47:00,
2013-09-06 05:52:00,47.1,46.0,30.23,SE,132,0.0,0.0,96,0.00,,,0.00,Wunderground v.1.15,2013-09-06 10:52:00,
2013-09-06 05:58:00,47.1,46.0,30.23,SE,132,0.0,0.0,96,0.00,,,0.00,Wunderground v.1.15,2013-09-06 10:58:00,
2013-09-06 06:04:00,47.3,46.2,30.23,SE,132,0.0,0.0,96,0.00,,,0.00,Wunderground v.1.15,2013-09-06 11:04:00,
2013-09-06 06:10:00,47.3,46.2,30.23,SE,132,0.0,0.0,96,0.00,,,0.00,Wunderground v.1.15,2013-09-06 11:10:00,
2013-09-06 06:15:00,47.3,46.2,30.23,SE,132,0.0,0.0,96,0.00,,,0.00,Wunderground v.1.15,2013-09-06 11:15:00,
2013-09-06 06:20:00,47.4,46.3,30.23,SE,132,0.0,0.0,96,0.00,,,0.00,Wunderground v.1.15,2013-09-06 11:20:00,
2013-09-06 06:25:00,47.5,46.4,30.23,SE,132,0.0,0.0,96,0.00,,,0.00,Wunderground v.1.15,2013-09-06 11:25:00,
2013-09-06 06:30:00,47.6,46.8,30.23,SE,132,0.0,0.0,97,0.00,,,0.00,Wunderground v.1.15,2013-09-06 11:30:00,
2013-09-06 06:36:00,47.7,46.9,30.23,SE,132,0.0,0.0,97,0.00,,,0.00,Wunderground v.1.15,2013-09-06 11:36:00,
2013-09-06 06:42:00,48.0,47.2,30.23,SE,132,0.0,0.0,97,0.00,,,0.00,Wunderground v.1.15,2013-09-06 11:42:00,
2013-09-06 06:47:00,48.2,47.4,30.23,SE,132,0.0,0.0,97,0.00,,,0.00,Wunderground v.1.15,2013-09-06 11:47:00,
2013-09-06 06:52:00,48.3,47.5,30.23,SE,132,0.0,0.0,97,0.00,,,0.00,Wunderground v.1.15,2013-09-06 11:52:00,
2013-09-06 06:58:00,48.6,47.8,30.23,SE,132,0.0,0.0,97,0.00,,,0.00,Wunderground v.1.15,2013-09-06 11:58:00,
2013-09-06 07:03:00,48.9,48.1,30.23,SE,132,0.0,0.0,97,0.00,,,0.00,Wunderground v.1.15,2013-09-06 12:03:00,
2013-09-06 07:08:00,49.4,48.6,30.23,SE,132,0.0,0.0,97,0.00,,,0.00,Wunderground v.1.15,2013-09-06 12:08:00,
2013-09-06 07:13:00,50.1,49.3,30.23,SE,132,0.0,0.0,97,0.00,,,0.00,Wunderground v.1.15,2013-09-06 12:13:00,
2013-09-06 07:18:00,50.8,50.0,30.22,SE,132,0.0,0.0,97,0.00,,,0.00,Wunderground v.1.15,2013-09-06 12:18:00,
2013-09-06 07:23:00,51.7,50.9,30.22,SE,132,0.0,0.0,97,0.00,,,0.00,Wunderground v.1.15,2013-09-06 12:23:00,
2013-09-06 07:28:00,52.6,51.8,30.22,SE,132,0.0,0.0,97,0.00,,,0.00,Wunderground v.1.15,2013-09-06 12:28:00,
2013-09-06 07:33:00,53.6,53.0,30.22,SE,132,0.0,0.0,98,0.00,,,0.00,Wunderground v.1.15,2013-09-06 12:33:00,
2013-09-06 07:39:00,54.8,54.2,30.22,SE,132,0.0,0.0,98,0.00,,,0.00,Wunderground v.1.15,2013-09-06 12:39:00,
2013-09-06 07:45:00,55.8,55.2,30.22,SE,132,0.0,0.0,98,0.00,,,0.00,Wunderground v.1.15,2013-09-06 12:45:00,
2013-09-06 07:51:00,56.7,56.1,30.22,SE,135,2.0,2.0,98,0.00,,,0.00,Wunderground v.1.15,2013-09-06 12:51:00,
2013-09-06 07:56:00,57.1,56.5,30.21,SSW,194,0.0,2.0,98,0.00,,,0.00,Wunderground v.1.15,2013-09-06 12:56:00,
2013-09-06 08:01:00,57.7,57.1,30.21,South,177,2.0,4.0,98,0.00,,,0.00,Wunderground v.1.15,2013-09-06 13:01:00,
2013-09-06 08:07:00,58.6,58.0,30.21,SSE,155,2.0,4.0,98,0.00,,,0.00,Wunderground v.1.15,2013-09-06 13:07:00,
2013-09-06 08:12:00,59.3,58.7,30.21,SSE,156,0.0,3.0,98,0.00,,,0.00,Wunderground v.1.15,2013-09-06 13:12:00,
2013-09-06 08:17:00,59.9,59.3,30.20,South,184,2.0,3.0,98,0.00,,,0.00,Wunderground v.1.15,2013-09-06 13:17:00,
2013-09-06 08:22:00,60.5,59.9,30.20,South,185,0.0,2.0,98,0.00,,,0.00,Wunderground v.1.15,2013-09-06 13:22:00,
2013-09-06 08:27:00,61.1,60.5,30.20,SSW,196,1.0,3.0,98,0.00,,,0.00,Wunderground v.1.15,2013-09-06 13:27:00,
2013-09-06 08:32:00,61.6,60.4,30.20,SSW,199,1.0,4.0,96,0.00,,,0.00,Wunderground v.1.15,2013-09-06 13:32:00,
2013-09-06 08:37:00,62.2,59.5,30.20,SSW,207,1.0,6.0,91,0.00,,,0.00,Wunderground v.1.15,2013-09-06 13:37:00,
2013-09-06 08:42:00,62.7,59.1,30.20,SW,228,3.0,3.0,88,0.00,,,0.00,Wunderground v.1.15,2013-09-06 13:42:00,
2013-09-06 08:48:00,63.2,59.3,30.20,SSW,210,1.0,3.0,87,0.00,,,0.00,Wunderground v.1.15,2013-09-06 13:48:00,
2013-09-06 08:52:00,63.7,59.1,30.19,SSW,211,3.0,5.0,85,0.00,,,0.00,Wunderground v.1.15,2013-09-06 13:52:00,
2013-09-06 08:58:00,64.1,58.1,30.19,SSW,203,3.0,5.0,81,0.00,,,0.00,Wunderground v.1.15,2013-09-06 13:58:00,
2013-09-06 09:03:00,64.7,59.1,30.19,SSW,206,5.0,5.0,82,0.00,,,0.00,Wunderground v.1.15,2013-09-06 14:03:00,
2013-09-06 09:08:00,65.2,58.5,30.19,SSW,199,3.0,5.0,79,0.00,,,0.00,Wunderground v.1.15,2013-09-06 14:08:00,
2013-09-06 09:14:00,65.9,58.1,30.19,SSW,201,1.0,6.0,76,0.00,,,0.00,Wunderground v.1.15,2013-09-06 14:14:00,
2013-09-06 09:19:00,66.6,58.8,30.19,South,189,3.0,6.0,76,0.00,,,0.00,Wunderground v.1.15,2013-09-06 14:19:00,
2013-09-06 09:24:00,67.2,58.2,30.19,South,185,2.0,6.0,73,0.00,,,0.00,Wunderground v.1.15,2013-09-06 14:24:00,
2013-09-06 09:29:00,67.7,58.7,30.19,SSW,200,2.0,6.0,73,0.00,,,0.00,Wunderground v.1.15,2013-09-06 14:29:00,
2013-09-06 09:35:00,68.3,58.9,30.19,SW,217,1.0,4.0,72,0.00,,,0.00,Wunderground v.1.15,2013-09-06 14:35:00,
2013-09-06 09:41:00,68.6,58.4,30.19,SW,234,4.0,4.0,70,0.00,,,0.00,Wunderground v.1.15,2013-09-06 14:41:00,
2013-09-06 09:47:00,69.2,58.6,30.19,SW,230,3.0,4.0,69,0.00,,,0.00,Wunderground v.1.15,2013-09-06 14:47:00,
2013-09-06 09:52:00,69.6,59.0,30.19,SW,236,3.0,4.0,69,0.00,,,0.00,Wunderground v.1.15,2013-09-06 14:52:00,
2013-09-06 09:57:00,69.9,58.9,30.19,SW,234,6.0,6.0,68,0.00,,,0.00,Wunderground v.1.15,2013-09-06 14:57:00,
2013-09-06 10:02:00,70.1,59.0,30.18,SW,229,3.0,4.0,68,0.00,,,0.00,Wunderground v.1.15,2013-09-06 15:02:00,
2013-09-06 10:08:00,70.4,59.3,30.18,SSW,194,2.0,5.0,68,0.00,,,0.00,Wunderground v.1.15,2013-09-06 15:08:00,
2013-09-06 10:13:00,70.8,59.7,30.18,SW,221,2.0,6.0,68,0.00,,,0.00,Wunderground v.1.15,2013-09-06 15:13:00,
2013-09-06 10:19:00,71.1,60.4,30.18,SW,224,2.0,6.0,69,0.00,,,0.00,Wunderground v.1.15,2013-09-06 15:19:00,
2013-09-06 10:24:00,71.4,60.7,30.18,SSW,192,5.0,5.0,69,0.00,,,0.00,Wunderground v.1.15,2013-09-06 15:24:00,
2013-09-06 10:30:00,71.9,60.8,30.18,SW,234,2.0,2.0,68,0.00,,,0.00,Wunderground v.1.15,2013-09-06 15:30:00,
2013-09-06 10:35:00,72.4,61.7,30.17,SW,226,3.0,6.0,69,0.00,,,0.00,Wunderground v.1.15,2013-09-06 15:35:00,
2013-09-06 10:40:00,72.7,61.5,30.18,SW,229,3.0,3.0,68,0.00,,,0.00,Wunderground v.1.15,2013-09-06 15:40:00,
2013-09-06 10:45:00,73.0,61.8,30.18,SSW,213,3.0,6.0,68,0.00,,,0.00,Wunderground v.1.15,2013-09-06 15:45:00,
2013-09-06 10:50:00,73.4,62.6,30.18,SW,220,3.0,3.0,69,0.00,,,0.00,Wunderground v.1.15,2013-09-06 15:50:00,
2013-09-06 10:55:00,73.7,62.5,30.18,SW,222,5.0,7.0,68,0.00,,,0.00,Wunderground v.1.15,2013-09-06 15:55:00,
2013-09-06 11:00:00,74.0,63.2,30.18,SSW,212,4.0,6.0,69,0.00,,,0.00,Wunderground v.1.15,2013-09-06 16:00:00,
2013-09-06 11:06:00,74.6,63.3,30.18,South,181,4.0,6.0,68,0.00,,,0.00,Wunderground v.1.15,2013-09-06 16:06:00,
2013-09-06 11:11:00,75.0,63.7,30.17,SW,231,2.0,5.0,68,0.00,,,0.00,Wunderground v.1.15,2013-09-06 16:11:00,
2013-09-06 11:16:00,75.3,64.8,30.17,SW,221,4.0,7.0,70,0.00,,,0.00,Wunderground v.1.15,2013-09-06 16:16:00,
2013-09-06 11:21:00,75.9,64.6,30.17,SSW,212,3.0,3.0,68,0.00,,,0.00,Wunderground v.1.15,2013-09-06 16:21:00,
2013-09-06 11:26:00,76.4,65.1,30.18,SW,215,4.0,7.0,68,0.00,,,0.00,Wunderground v.1.15,2013-09-06 16:26:00,
2013-09-06 11:31:00,76.5,64.7,30.17,WSW,238,2.0,5.0,67,0.00,,,0.00,Wunderground v.1.15,2013-09-06 16:31:00,
2013-09-06 11:37:00,77.0,66.0,30.17,WSW,254,3.0,6.0,69,0.00,,,0.00,Wunderground v.1.15,2013-09-06 16:37:00,
2013-09-06 11:42:00,77.5,66.1,30.17,SSW,211,4.0,6.0,68,0.00,,,0.00,Wunderground v.1.15,2013-09-06 16:42:00,
2013-09-06 11:48:00,77.9,65.6,30.17,NW,326,0.0,6.0,66,0.00,,,0.00,Wunderground v.1.15,2013-09-06 16:48:00,
2013-09-06 11:53:00,78.3,66.0,30.17,East,98,0.0,6.0,66,0.00,,,0.00,Wunderground v.1.15,2013-09-06 16:53:00,
2013-09-06 11:58:00,78.8,67.3,30.16,SW,219,2.0,6.0,68,0.00,,,0.00,Wunderground v.1.15,2013-09-06 16:58:00,
2013-09-06 12:04:00,78.8,66.0,30.16,SW,219,2.0,3.0,65,0.00,,,0.00,Wunderground v.1.15,2013-09-06 17:04:00,
2013-09-06 12:10:00,78.5,65.8,30.16,SSW,196,3.0,3.0,65,0.00,,,0.00,Wunderground v.1.15,2013-09-06 17:10:00,
2013-09-06 12:15:00,78.5,65.8,30.16,NW,310,3.0,4.0,65,0.00,,,0.00,Wunderground v.1.15,2013-09-06 17:15:00,
2013-09-06 12:20:00,78.7,66.8,30.15,WSW,257,3.0,4.0,67,0.00,,,0.00,Wunderground v.1.15,2013-09-06 17:20:00,
2013-09-06 12:25:00,79.1,66.8,30.15,SSW,198,7.0,7.0,66,0.00,,,0.00,Wunderground v.1.15,2013-09-06 17:25:00,
2013-09-06 12:31:00,79.4,67.0,30.15,SW,215,3.0,3.0,66,0.00,,,0.00,Wunderground v.1.15,2013-09-06 17:31:00,
2013-09-06 12:37:00,79.8,67.4,30.15,SW,219,4.0,5.0,66,0.00,,,0.00,Wunderground v.1.15,2013-09-06 17:37:00,
2013-09-06 12:43:00,79.4,67.0,30.14,SW,217,4.0,5.0,66,0.00,,,0.00,Wunderground v.1.15,2013-09-06 17:43:00,
2013-09-06 12:48:00,80.0,68.5,30.14,North,355,1.0,5.0,68,0.00,,,0.00,Wunderground v.1.15,2013-09-06 17:48:00,
2013-09-06 12:53:00,80.5,67.6,30.13,SW,216,4.0,5.0,65,0.00,,,0.00,Wunderground v.1.15,2013-09-06 17:53:00,
2013-09-06 12:58:00,80.6,67.7,30.13,South,180,2.0,7.0,65,0.00,,,0.00,Wunderground v.1.15,2013-09-06 17:58:00,
2013-09-06 13:03:00,80.9,68.9,30.13,West,281,0.0,5.0,67,0.00,,,0.00,Wunderground v.1.15,2013-09-06 18:03:00,
2013-09-06 13:08:00,81.0,68.6,30.12,SW,233,4.0,6.0,66,0.00,,,0.00,Wunderground v.1.15,2013-09-06 18:08:00,
2013-09-06 13:13:00,81.0,67.7,30.12,WSW,240,0.0,7.0,64,0.00,,,0.00,Wunderground v.1.15,2013-09-06 18:13:00,
2013-09-06 13:19:00,81.0,67.7,30.12,West,279,1.0,7.0,64,0.00,,,0.00,Wunderground v.1.15,2013-09-06 18:19:00,
2013-09-06 13:24:00,81.1,69.1,30.12,SW,221,1.0,9.0,67,0.00,,,0.00,Wunderground v.1.15,2013-09-06 18:24:00,
2013-09-06 13:29:00,81.3,68.9,30.12,South,190,4.0,9.0,66,0.00,,,0.00,Wunderground v.1.15,2013-09-06 18:29:00,
2013-09-06 13:34:00,81.5,67.7,30.11,WSW,238,4.0,7.0,63,0.00,,,0.00,Wunderground v.1.15,2013-09-06 18:34:00,
2013-09-06 13:39:00,81.3,68.9,30.11,SSW,193,4.0,8.0,66,0.00,,,0.00,Wunderground v.1.15,2013-09-06 18:39:00,
2013-09-06 13:44:00,81.5,68.6,30.10,SW,220,2.0,7.0,65,0.00,,,0.00,Wunderground v.1.15,2013-09-06 18:44:00,
2013-09-06 13:49:00,81.8,68.4,30.10,SW,232,2.0,7.0,64,0.00,,,0.00,Wunderground v.1.15,2013-09-06 18:49:00,
2013-09-06 13:54:00,81.9,68.1,30.09,SW,232,0.0,5.0,63,0.00,,,0.00,Wunderground v.1.15,2013-09-06 18:54:00,
2013-09-06 14:00:00,82.0,68.2,30.09,West,261,0.0,4.0,63,0.00,,,0.00,Wunderground v.1.15,2013-09-06 19:00:00,
2013-09-06 14:05:00,82.0,68.6,30.09,SW,231,4.0,7.0,64,0.00,,,0.00,Wunderground v.1.15,2013-09-06 19:05:00,
2013-09-06 14:10:00,81.8,68.9,30.09,SW,216,0.0,4.0,65,0.00,,,0.00,Wunderground v.1.15,2013-09-06 19:10:00,
2013-09-06 14:16:00,82.1,68.7,30.09,South,185,4.0,7.0,64,0.00,,,0.00,Wunderground v.1.15,2013-09-06 19:16:00,
2013-09-06 14:21:00,82.1,69.2,30.09,WSW,257,4.0,7.0,65,0.00,,,0.00,Wunderground v.1.15,2013-09-06 19:21:00,
2013-09-06 14:27:00,82.2,69.3,30.09,SW,236,5.0,7.0,65,0.00,,,0.00,Wunderground v.1.15,2013-09-06 19:27:00,
2013-09-06 14:32:00,82.3,68.9,30.08,SW,223,6.0,9.0,64,0.00,,,0.00,Wunderground v.1.15,2013-09-06 19:32:00,
2013-09-06 14:37:00,82.4,69.0,30.08,SW,232,3.0,9.0,64,0.00,,,0.00,Wunderground v.1.15,2013-09-06 19:37:00,
2013-09-06 14:42:00,82.7,69.3,30.08,WSW,250,0.0,6.0,64,0.00,,,0.00,Wunderground v.1.15,2013-09-06 19:42:00,
2013-09-06 14:47:00,83.0,69.6,30.08,SSW,199,7.0,12.0,64,0.00,,,0.00,Wunderground v.1.15,2013-09-06 19:47:00,
2013-09-06 14:52:00,82.9,69.5,30.07,SW,224,1.0,6.0,64,0.00,,,0.00,Wunderground v.1.15,2013-09-06 19:52:00,
2013-09-06 14:57:00,83.1,68.7,30.07,SW,220,4.0,9.0,62,0.00,,,0.00,Wunderground v.1.15,2013-09-06 19:57:00,
2013-09-06 15:03:00,83.2,69.3,30.07,SW,231,2.0,6.0,63,0.00,,,0.00,Wunderground v.1.15,2013-09-06 20:03:00,
2013-09-06 15:08:00,83.3,69.4,30.07,WNW,294,1.0,7.0,63,0.00,,,0.00,Wunderground v.1.15,2013-09-06 20:08:00,
2013-09-06 15:14:00,83.6,70.1,30.06,NW,326,2.0,4.0,64,0.00,,,0.00,Wunderground v.1.15,2013-09-06 20:14:00,
2013-09-06 15:19:00,83.6,69.2,30.06,SW,228,5.0,11.0,62,0.00,,,0.00,Wunderground v.1.15,2013-09-06 20:19:00,
2013-09-06 15:24:00,83.4,69.5,30.06,SW,225,3.0,10.0,63,0.00,,,0.00,Wunderground v.1.15,2013-09-06 20:24:00,
2013-09-06 15:29:00,83.5,70.0,30.06,WNW,302,2.0,10.0,64,0.00,,,0.00,Wunderground v.1.15,2013-09-06 20:29:00,
2013-09-06 15:34:00,83.6,69.7,30.06,WSW,250,1.0,7.0,63,0.00,,,0.00,Wunderground v.1.15,2013-09-06 20:34:00,
2013-09-06 15:39:00,83.9,69.5,30.06,SW,227,3.0,7.0,62,0.00,,,0.00,Wunderground v.1.15,2013-09-06 20:39:00,
2013-09-06 15:44:00,84.2,70.2,30.06,SW,226,1.0,5.0,63,0.00,,,0.00,Wunderground v.1.15,2013-09-06 20:44:00,
2013-09-06 15:50:00,84.4,69.5,30.06,SW,224,7.0,7.0,61,0.00,,,0.00,Wunderground v.1.15,2013-09-06 20:50:00,
2013-09-06 15:55:00,84.4,69.5,30.06,SW,219,1.0,7.0,61,0.00,,,0.00,Wunderground v.1.15,2013-09-06 20:55:00,
2013-09-06 16:00:00,84.1,69.2,30.06,SW,236,7.0,9.0,61,0.00,,,0.00,Wunderground v.1.15,2013-09-06 21:00:00,
2013-09-06 16:05:00,83.4,69.0,30.06,SW,230,5.0,10.0,62,0.00,,,0.00,Wunderground v.1.15,2013-09-06 21:05:00,
2013-09-06 16:10:00,83.0,69.1,30.05,WSW,252,1.0,1.0,63,0.00,,,0.00,Wunderground v.1.15,2013-09-06 21:10:00,
2013-09-06 16:15:00,83.2,68.8,30.05,WSW,248,3.0,6.0,62,0.00,,,0.00,Wunderground v.1.15,2013-09-06 21:15:00,
2013-09-06 16:21:00,83.4,69.0,30.05,WSW,237,5.0,6.0,62,0.00,,,0.00,Wunderground v.1.15,2013-09-06 21:21:00,
2013-09-06 16:26:00,83.2,68.3,30.05,WSW,237,1.0,7.0,61,0.00,,,0.00,Wunderground v.1.15,2013-09-06 21:26:00,
2013-09-06 16:31:00,83.2,68.8,30.05,SW,232,4.0,6.0,62,0.00,,,0.00,Wunderground v.1.15,2013-09-06 21:31:00,
2013-09-06 16:36:00,82.6,68.7,30.05,WSW,254,0.0,8.0,63,0.00,,,0.00,Wunderground v.1.15,2013-09-06 21:36:00,
2013-09-06 16:41:00,82.2,68.8,30.05,WSW,238,3.0,5.0,64,0.00,,,0.00,Wunderground v.1.15,2013-09-06 21:41:00,
2013-09-06 16:46:00,82.2,69.3,30.04,SW,234,4.0,6.0,65,0.00,,,0.00,Wunderground v.1.15,2013-09-06 21:46:00,
2013-09-06 16:52:00,82.1,68.7,30.04,SW,215,5.0,5.0,64,0.00,,,0.00,Wunderground v.1.15,2013-09-06 21:52:00,
2013-09-06 16:57:00,82.0,69.1,30.03,SE,146,0.0,6.0,65,0.00,,,0.00,Wunderground v.1.15,2013-09-06 21:57:00,
2013-09-06 17:02:00,82.2,68.3,30.03,SW,232,3.0,6.0,63,0.00,,,0.00,Wunderground v.1.15,2013-09-06 22:02:00,
2013-09-06 17:07:00,81.9,68.5,30.03,SW,236,4.0,7.0,64,0.00,,,0.00,Wunderground v.1.15,2013-09-06 22:07:00,
2013-09-06 17:12:00,81.9,69.0,30.03,WSW,240,1.0,4.0,65,0.00,,,0.00,Wunderground v.1.15,2013-09-06 22:12:00,
2013-09-06 17:18:00,81.8,68.9,30.03,SW,225,0.0,5.0,65,0.00,,,0.00,Wunderground v.1.15,2013-09-06 22:18:00,
2013-09-06 17:24:00,81.6,68.7,30.03,SW,233,2.0,3.0,65,0.00,,,0.00,Wunderground v.1.15,2013-09-06 22:24:00,
2013-09-06 17:29:00,81.5,68.6,30.03,SW,221,1.0,6.0,65,0.00,,,0.00,Wunderground v.1.15,2013-09-06 22:29:00,
2013-09-06 17:34:00,81.2,69.2,30.03,SSW,208,1.0,4.0,67,0.00,,,0.00,Wunderground v.1.15,2013-09-06 22:34:00,
2013-09-06 17:39:00,80.7,69.6,30.03,SSW,208,0.0,4.0,69,0.00,,,0.00,Wunderground v.1.15,2013-09-06 22:39:00,
2013-09-06 17:44:00,80.2,69.1,30.03,WSW,242,4.0,4.0,69,0.00,,,0.00,Wunderground v.1.15,2013-09-06 22:44:00,
2013-09-06 17:49:00,79.8,69.1,30.03,SW,236,2.0,4.0,70,0.00,,,0.00,Wunderground v.1.15,2013-09-06 22:49:00,
2013-09-06 17:54:00,79.5,69.3,30.03,SW,227,2.0,4.0,71,0.00,,,0.00,Wunderground v.1.15,2013-09-06 22:54:00,
2013-09-06 17:59:00,79.2,69.4,30.03,SSW,211,4.0,6.0,72,0.00,,,0.00,Wunderground v.1.15,2013-09-06 22:59:00,
2013-09-06 18:05:00,79.0,69.2,30.03,SW,235,0.0,3.0,72,0.00,,,0.00,Wunderground v.1.15,2013-09-06 23:05:00,
2013-09-06 18:10:00,79.1,69.3,30.03,SW,235,1.0,1.0,72,0.00,,,0.00,Wunderground v.1.15,2013-09-06 23:10:00,
2013-09-06 18:15:00,79.1,69.3,30.03,SW,229,0.0,3.0,72,0.00,,,0.00,Wunderground v.1.15,2013-09-06 23:15:00,
2013-09-06 18:20:00,78.8,69.0,30.03,SW,229,0.0,0.0,72,0.00,,,0.00,Wunderground v.1.15,2013-09-06 23:20:00,
2013-09-06 18:25:00,78.4,69.0,30.03,SW,229,0.0,2.0,73,0.00,,,0.00,Wunderground v.1.15,2013-09-06 23:25:00,
2013-09-06 18:30:00,78.1,69.5,30.03,SW,229,0.0,0.0,75,0.00,,,0.00,Wunderground v.1.15,2013-09-06 23:30:00,
2013-09-06 18:35:00,77.7,68.7,30.03,SW,217,3.0,3.0,74,0.00,,,0.00,Wunderground v.1.15,2013-09-06 23:35:00,
2013-09-06 18:40:00,77.4,68.9,30.03,SW,217,1.0,2.0,75,0.00,,,0.00,Wunderground v.1.15,2013-09-06 23:40:00,
2013-09-06 18:46:00,76.9,68.8,30.02,SW,217,0.0,2.0,76,0.00,,,0.00,Wunderground v.1.15,2013-09-06 23:46:00,
2013-09-06 18:51:00,76.4,68.7,30.01,SSW,211,2.0,2.0,77,0.00,,,0.00,Wunderground v.1.15,2013-09-06 23:51:00,
2013-09-06 18:56:00,75.9,68.5,30.01,SSW,211,1.0,2.0,78,0.00,,,0.00,Wunderground v.1.15,2013-09-06 23:56:00,
2013-09-06 19:02:00,75.5,68.2,30.01,SSW,211,2.0,3.0,78,0.00,,,0.00,Wunderground v.1.15,2013-09-07 00:02:00,
2013-09-06 19:08:00,75.3,68.0,30.01,SSW,211,0.0,3.0,78,0.00,,,0.00,Wunderground v.1.15,2013-09-07 00:08:00,
2013-09-06 19:14:00,75.1,67.8,30.00,SSW,202,1.0,4.0,78,0.00,,,0.00,Wunderground v.1.15,2013-09-07 00:14:00,
2013-09-06 19:19:00,74.9,67.9,30.00,SSW,201,1.0,4.0,79,0.00,,,0.00,Wunderground v.1.15,2013-09-07 00:19:00,
2013-09-06 19:24:00,74.6,67.7,30.00,SSW,200,0.0,3.0,79,0.00,,,0.00,Wunderground v.1.15,2013-09-07 00:24:00,
2013-09-06 19:29:00,74.3,67.7,30.00,SSW,196,2.0,3.0,80,0.00,,,0.00,Wunderground v.1.15,2013-09-07 00:29:00,
2013-09-06 19:35:00,74.0,67.8,30.01,SSW,206,2.0,4.0,81,0.00,,,0.00,Wunderground v.1.15,2013-09-07 00:35:00,
2013-09-06 19:40:00,73.8,67.6,30.00,SSW,207,2.0,2.0,81,0.00,,,0.00,Wunderground v.1.15,2013-09-07 00:40:00,
2013-09-06 19:46:00,73.6,67.4,30.00,SSW,209,2.0,5.0,81,0.00,,,0.00,Wunderground v.1.15,2013-09-07 00:46:00,
2013-09-06 19:51:00,73.4,67.6,30.00,SSW,207,2.0,3.0,82,0.00,,,0.00,Wunderground v.1.15,2013-09-07 00:51:00,
2013-09-06 19:56:00,73.3,67.5,30.00,SSW,198,1.0,4.0,82,0.00,,,0.00,Wunderground v.1.15,2013-09-07 00:56:00,
2013-09-06 20:01:00,73.2,67.4,30.00,SSW,205,3.0,4.0,82,0.00,,,0.00,Wunderground v.1.15,2013-09-07 01:01:00,
2013-09-06 20:06:00,73.0,67.5,30.01,SSW,200,3.0,5.0,83,0.00,,,0.00,Wunderground v.1.15,2013-09-07 01:06:00,
2013-09-06 20:11:00,73.0,67.5,30.01,SW,223,1.0,3.0,83,0.00,,,0.00,Wunderground v.1.15,2013-09-07 01:11:00,
2013-09-06 20:17:00,72.9,67.4,30.01,SSW,204,3.0,5.0,83,0.00,,,0.00,Wunderground v.1.15,2013-09-07 01:17:00,
2013-09-06 20:23:00,72.8,67.3,30.02,SSW,198,2.0,3.0,83,0.00,,,0.00,Wunderground v.1.15,2013-09-07 01:23:00,
2013-09-06 20:28:00,72.6,67.1,30.02,SSW,202,1.0,3.0,83,0.00,,,0.00,Wunderground v.1.15,2013-09-07 01:28:00,
2013-09-06 20:33:00,72.4,67.3,30.02,South,190,1.0,3.0,84,0.00,,,0.00,Wunderground v.1.15,2013-09-07 01:33:00,
2013-09-06 20:38:00,72.2,67.1,30.02,SW,219,0.0,3.0,84,0.00,,,0.00,Wunderground v.1.15,2013-09-07 01:38:00,
2013-09-06 20:44:00,72.1,67.0,30.02,SSW,201,2.0,4.0,84,0.00,,,0.00,Wunderground v.1.15,2013-09-07 01:44:00,
2013-09-06 20:49:00,71.9,66.8,30.02,SSW,210,4.0,4.0,84,0.00,,,0.00,Wunderground v.1.15,2013-09-07 01:49:00,
2013-09-06 20:54:00,71.8,67.0,30.02,SSW,205,2.0,3.0,85,0.00,,,0.00,Wunderground v.1.15,2013-09-07 01:54:00,
2013-09-06 20:59:00,71.7,66.9,30.01,SSW,209,2.0,4.0,85,0.00,,,0.00,Wunderground v.1.15,2013-09-07 01:59:00,
2013-09-06 21:04:00,71.7,66.9,30.01,SSW,196,0.0,3.0,85,0.00,,,0.00,Wunderground v.1.15,2013-09-07 02:04:00,
2013-09-06 21:10:00,71.5,66.8,30.01,SSW,200,0.0,2.0,85,0.00,,,0.00,Wunderground v.1.15,2013-09-07 02:10:00,
2013-09-06 21:15:00,71.4,66.7,30.01,SSW,202,0.0,2.0,85,0.00,,,0.00,Wunderground v.1.15,2013-09-07 02:15:00,
2013-09-06 21:20:00,71.2,66.8,30.01,SSW,211,0.0,1.0,86,0.00,,,0.00,Wunderground v.1.15,2013-09-07 02:20:00,
2013-09-06 21:25:00,71.1,66.7,30.01,SSW,211,2.0,2.0,86,0.00,,,0.00,Wunderground v.1.15,2013-09-07 02:25:00,
2013-09-06 21:30:00,71.0,66.6,30.02,SSW,211,0.0,2.0,86,0.00,,,0.00,Wunderground v.1.15,2013-09-07 02:30:00,
2013-09-06 21:35:00,70.8,66.4,30.01,SSW,211,2.0,2.0,86,0.00,,,0.00,Wunderground v.1.15,2013-09-07 02:35:00,
2013-09-06 21:41:00,70.6,66.5,30.01,SSW,202,1.0,1.0,87,0.00,,,0.00,Wunderground v.1.15,2013-09-07 02:41:00,
2013-09-06 21:46:00,70.4,66.3,30.01,SW,214,1.0,2.0,87,0.00,,,0.00,Wunderground v.1.15,2013-09-07 02:46:00,
2013-09-06 21:51:00,70.3,66.6,30.01,SSW,211,3.0,3.0,88,0.00,,,0.00,Wunderground v.1.15,2013-09-07 02:51:00,
2013-09-06 21:56:00,70.3,66.6,30.01,SSW,201,1.0,3.0,88,0.00,,,0.00,Wunderground v.1.15,2013-09-07 02:56:00,
2013-09-06 22:01:00,70.3,66.6,30.01,SSW,210,1.0,3.0,88,0.00,,,0.00,Wunderground v.1.15,2013-09-07 03:01:00,
2013-09-06 22:06:00,70.2,66.5,30.01,SSW,203,1.0,3.0,88,0.00,,,0.00,Wunderground v.1.15,2013-09-07 03:06:00,
2013-09-06 22:11:00,70.0,66.3,30.00,SSW,208,2.0,2.0,88,0.00,,,0.00,Wunderground v.1.15,2013-09-07 03:11:00,
2013-09-06 22:16:00,69.9,66.2,30.00,SSW,208,1.0,3.0,88,0.00,,,0.00,Wunderground v.1.15,2013-09-07 03:16:00,
2013-09-06 22:22:00,69.8,66.4,30.01,WSW,242,0.0,2.0,89,0.00,,,0.00,Wunderground v.1.15,2013-09-07 03:22:00,
2013-09-06 22:27:00,69.7,66.3,30.00,SW,228,2.0,3.0,89,0.00,,,0.00,Wunderground v.1.15,2013-09-07 03:27:00,
2013-09-06 22:32:00,69.5,66.1,30.00,SSW,213,2.0,3.0,89,0.00,,,0.00,Wunderground v.1.15,2013-09-07 03:32:00,
2013-09-06 22:37:00,69.5,66.1,30.01,SW,216,1.0,3.0,89,0.00,,,0.00,Wunderground v.1.15,2013-09-07 03:37:00,
2013-09-06 22:43:00,69.4,66.0,30.00,SW,214,2.0,2.0,89,0.00,,,0.00,Wunderground v.1.15,2013-09-07 03:43:00,
2013-09-06 22:48:00,69.3,66.2,30.00,SW,217,1.0,3.0,90,0.00,,,0.00,Wunderground v.1.15,2013-09-07 03:48:00,
2013-09-06 22:53:00,69.2,66.1,30.00,SSW,209,1.0,3.0,90,0.00,,,0.00,Wunderground v.1.15,2013-09-07 03:53:00,
2013-09-06 22:58:00,69.2,66.1,30.00,SW,235,1.0,3.0,90,0.00,,,0.00,Wunderground v.1.15,2013-09-07 03:58:00,
2013-09-06 23:01:00,69.3,66.2,30.00,SW,236,2.0,2.0,90,0.00,,,0.00,Wunderground v.1.15,2013-09-07 04:01:00,
2013-09-06 23:02:00,69.3,66.2,30.00,SW,236,1.0,2.0,90,0.00,,,0.00,Wunderground v.1.15,2013-09-07 04:02:00,
2013-09-06 23:03:00,69.3,66.2,30.00,SW,236,1.0,2.0,90,0.00,,,0.00,Wunderground v.1.15,2013-09-07 04:03:00,
2013-09-06 23:08:00,69.2,66.1,30.00,SW,230,1.0,2.0,90,0.00,,,0.00,Wunderground v.1.15,2013-09-07 04:08:00,
2013-09-06 23:13:00,69.2,66.1,29.99,SSW,209,1.0,4.0,90,0.00,,,0.00,Wunderground v.1.15,2013-09-07 04:13:00,
2013-09-06 23:18:00,69.2,66.1,29.99,SSW,208,1.0,4.0,90,0.00,,,0.00,Wunderground v.1.15,2013-09-07 04:18:00,
2013-09-06 23:23:00,69.1,66.0,29.99,SSW,205,1.0,3.0,90,0.00,,,0.00,Wunderground v.1.15,2013-09-07 04:23:00,
2013-09-06 23:29:00,69.0,65.9,29.99,SSW,206,1.0,3.0,90,0.00,,,0.00,Wunderground v.1.15,2013-09-07 04:29:00,
2013-09-06 23:35:00,68.9,65.8,29.99,SSW,211,1.0,4.0,90,0.00,,,0.00,Wunderground v.1.15,2013-09-07 04:35:00,
2013-09-06 23:40:00,68.9,65.8,29.99,SSW,209,1.0,2.0,90,0.00,,,0.00,Wunderground v.1.15,2013-09-07 04:40:00,
2013-09-06 23:45:00,68.8,65.7,29.99,SW,225,2.0,3.0,90,0.00,,,0.00,Wunderground v.1.15,2013-09-07 04:45:00,
2013-09-06 23:50:00,68.8,65.7,29.99,SW,221,2.0,2.0,90,0.00,,,0.00,Wunderground v.1.15,2013-09-07 04:50:00,
2013-09-06 23:55:00,68.9,65.8,29.98,SW,214,2.0,4.0,90,0.00,,,0.00,Wunderground v.1.15,2013-09-07 04:55:00,